Budapest Ferihegy, Hungary

7:41 PM CET on February 13, 2016 (GMT +0100)
Ferihegy

Weather History for LHBP - March, 2014

Change the Weather History Date:

Tuesday, March 18, 2014

  Actual Average Record
Temperature  
Mean Temperature 52 °F -  
Max Temperature 62 °F 55 °F 69 °F (2012)
Min Temperature 41 °F 35 °F 23 °F (1998)
Degree Days  
Heating Degree Days 14    
Growing Degree Days 2 (Base 50)    
Moisture  
Dew Point 39 °F    
Average Humidity 60    
Maximum Humidity 87    
Minimum Humidity 39    
Precipitation  
Precipitation 0.00 in - - ()
Sea Level Pressure  
Sea Level Pressure 30.01 in    
Wind  
Wind Speed 8 mph ()    
Max Wind Speed 16 mph    
Max Gust Speed -    
Averages and records for this station are not official NWS values.
T = Trace of Precipitation, MM = Missing Value Source: Averaged Metar Reports

Daily Weather History Graph

Daily Weather History Graph

Search for Another Location

Airport or City:

Trip Planner

Search our weather history database for the weather conditions in past years. The results will help you decide how hot, cold, wet, or windy it might be!

Date:

Astronomy

Mar. 18, 2014 Rise Set
Actual Time 5:50 AM CET 5:52 PM CET
Civil Twilight 5:19 AM CET 6:23 PM CET
Nautical Twilight 4:44 AM CET 6:58 PM CET
Astronomical Twilight 4:07 AM CET 7:35 PM CET
Moon 8:01 PM CET (3/18) 6:21 AM CET (3/18)
Length of Visible Light 13h 03m
Length of Day
12h 01m
Full, 97% of the Moon is Illuminated
Mar 18
Full
Mar 24
Last Quarter
Mar 30
New
Apr 7
First Quarter
Apr 15
Full

Hourly Weather History & Observations

Time (CET) Temp. Windchill Dew Point Humidity Pressure Visibility Wind Dir Wind Speed Gust Speed Precip Events Conditions
12:00 AM 46.4 °F 41.9 °F 37.4 °F 71% 30.04 in - WSW 9.2 mph - N/A   Clear
12:30 AM 44.6 °F 41.4 °F 37.4 °F 76% 30.04 in - NW 5.8 mph - N/A   Clear
1:00 AM 48.2 °F - 39.2 °F 71% 30.04 in - NW 5.8 mph - N/A   Clear
1:30 AM 48.2 °F - 37.4 °F 66% 30.04 in - West 6.9 mph - N/A   Clear
2:00 AM 46.4 °F 42.4 °F 37.4 °F 71% 30.04 in - WSW 8.1 mph - N/A   Clear
2:30 AM 42.8 °F 37.5 °F 37.4 °F 81% 30.04 in - WSW 9.2 mph - N/A   Clear
3:00 AM 44.6 °F 39.7 °F 37.4 °F 76% 30.04 in - WSW 9.2 mph - N/A   Clear
3:30 AM 41.0 °F 39.0 °F 37.4 °F 87% 30.04 in - Variable 3.5 mph - N/A   Clear
4:00 AM 46.4 °F 41.1 °F 37.4 °F 71% 30.04 in - West 11.5 mph - N/A   Clear
4:30 AM 46.4 °F 40.4 °F 37.4 °F 71% 30.04 in - West 13.8 mph - N/A   Clear
5:00 AM 46.4 °F 41.1 °F 37.4 °F 71% 30.04 in - West 11.5 mph - N/A   Clear
5:30 AM 44.6 °F 42.2 °F 35.6 °F 71% 30.06 in - NNW 4.6 mph - N/A   Clear
6:00 AM 41.0 °F 39.0 °F 33.8 °F 76% 30.04 in - Variable 3.5 mph - N/A   Clear
6:30 AM 41.0 °F 39.0 °F 35.6 °F 81% 30.06 in - Variable 3.5 mph - N/A   Clear
7:00 AM 41.0 °F 37.1 °F 35.6 °F 81% 30.06 in - WNW 5.8 mph - N/A   Clear
7:30 AM 50.0 °F - 37.4 °F 62% 30.06 in - West 11.5 mph - N/A   Clear
8:00 AM 51.8 °F - 37.4 °F 58% 30.06 in - West 11.5 mph - N/A   Clear
8:30 AM 53.6 °F - 37.4 °F 54% 30.06 in - West 12.7 mph - N/A   Clear
9:00 AM 53.6 °F - 37.4 °F 54% 30.06 in - WNW 12.7 mph - N/A   Clear
9:30 AM 55.4 °F - 35.6 °F 47% 30.09 in - WNW 15.0 mph - N/A   Clear
10:00 AM 57.2 °F - 35.6 °F 44% 30.09 in - West 13.8 mph - N/A   Clear
10:30 AM 59.0 °F - 33.8 °F 39% 30.06 in - West 13.8 mph - N/A   Clear
11:00 AM 57.2 °F - 33.8 °F 41% 30.06 in - West 12.7 mph - N/A   Clear
11:30 AM 57.2 °F - 35.6 °F 44% 30.06 in - West 12.7 mph - N/A   Clear
12:00 PM 59.0 °F - 37.4 °F 45% 30.04 in - WSW 12.7 mph - N/A   Clear
12:30 PM 60.8 °F - 35.6 °F 39% 30.04 in - West 13.8 mph - N/A   Clear
1:00 PM 62.6 °F - 39.2 °F 42% 30.01 in - West 12.7 mph - N/A   Clear
1:30 PM 62.6 °F - 39.2 °F 42% 30.01 in - West 12.7 mph - N/A   Clear
2:00 PM 62.6 °F - 39.2 °F 42% 30.01 in - WSW 16.1 mph - N/A   Clear
2:30 PM 62.6 °F - 39.2 °F 42% 29.98 in - WSW 11.5 mph - N/A   Clear
3:00 PM 62.6 °F - 39.2 °F 42% 29.98 in - SW 11.5 mph - N/A   Clear
3:30 PM 62.6 °F - 41.0 °F 45% 29.98 in - SSW 12.7 mph - N/A   Clear
4:00 PM 62.6 °F - 41.0 °F 45% 29.95 in - SW 11.5 mph - N/A   Clear
4:30 PM 62.6 °F - 41.0 °F 45% 29.95 in - SW 9.2 mph - N/A   Clear
5:00 PM 60.8 °F - 41.0 °F 48% 29.95 in - SW 6.9 mph - N/A   Clear
5:30 PM 60.8 °F - 41.0 °F 48% 29.95 in - SW 5.8 mph - N/A   Clear
6:00 PM 59.0 °F - 41.0 °F 51% 29.95 in - Variable 2.3 mph - N/A   Clear
6:30 PM 57.2 °F - 42.8 °F 59% 29.95 in - South 4.6 mph - N/A   Clear
7:00 PM 59.0 °F - 42.8 °F 55% 29.95 in - South 4.6 mph - N/A   Clear
7:30 PM 57.2 °F - 42.8 °F 59% 29.95 in - Variable 3.5 mph - N/A   Clear
8:00 PM 53.6 °F - 42.8 °F 67% 29.95 in - SE 5.8 mph - N/A   Clear
8:30 PM 53.6 °F - 42.8 °F 67% 29.95 in - Variable 3.5 mph - N/A   Clear
9:00 PM 53.6 °F - 42.8 °F 67% 29.95 in - Variable 3.5 mph - N/A   Clear
9:30 PM 53.6 °F - 42.8 °F 67% 29.95 in - East 4.6 mph - N/A   Clear
10:00 PM 50.0 °F - 42.8 °F 76% 29.95 in - Variable 2.3 mph - N/A   Clear
10:30 PM 46.4 °F - 41.0 °F 81% 29.92 in - Variable 1.2 mph - N/A   Clear
11:00 PM 51.8 °F - 41.0 °F 67% 29.92 in - Variable 2.3 mph - N/A   Clear
11:30 PM 51.8 °F - 42.8 °F 71% 29.92 in - Variable 2.3 mph - N/A   Clear